NR0A-4 Weather Reports


time (UTC)temp
C
wind
direction
speed
KPH
gust
KPH
rain 1hr
cm
rain 24hr
cm
rain mn
cm
humidity
%
barometer
mb
20260504151004 20 287 11.3 20.9 0.00 0.00 0.00 44 1002.7
20260504150504 20 277 8.0 19.3 0.00 0.00 0.00 45 1002.6
20260504141004 18 210 4.8 9.7 0.00 0.03 0.00 51 1001.8
20260504140504 17 273 4.8 14.5 0.00 0.03 0.00 53 1001.8
20260504130505 11 203 6.4 11.3 0.00 0.03 0.00 66 1002.1
20260504110505 7 217 0.0 0.0 0.00 0.03 0.00 70 1002.3
20260504100504 9 227 0.0 0.0 0.00 0.03 0.00 66 1002.8
20260504082004 11 190 0.0 0.0 0.00 0.03 0.00 57 1003.1
20260504081504 11 190 0.0 0.0 0.00 0.03 0.00 56 1003.1
20260504081004 11 190 0.0 0.0 0.00 0.03 0.00 56 1003.2
20260504080504 11 190 0.0 0.0 0.00 0.03 0.00 57 1003.2
20260504050504 13 132 0.0 0.0 0.00 0.03 0.00 52 1005.6
20260504050003 13 132 0.0 0.0 0.00 0.03 0.00 52 1005.6
20260504045503 13 132 0.0 0.0 0.00 0.03 0.03 52 1005.8
20260504045003 13 132 0.0 0.0 0.00 0.03 0.03 51 1005.9
20260504044504 13 132 0.0 0.0 0.00 0.03 0.03 50 1006.0
20260504044003 13 132 0.0 0.0 0.00 0.03 0.03 51 1006.0
20260504043503 13 132 0.0 1.6 0.00 0.03 0.03 50 1006.0
20260504043004 14 138 0.0 0.0 0.00 0.03 0.03 50 1006.1
20260504042503 14 138 0.0 0.0 0.00 0.03 0.03 50 1006.1
20260504042003 14 181 0.0 0.0 0.00 0.03 0.03 49 1006.2
20260504041503 14 181 0.0 0.0 0.00 0.03 0.03 48 1006.3
20260504041004 14 181 0.0 0.0 0.00 0.03 0.03 48 1006.4
20260504040503 14 181 0.0 0.0 0.00 0.03 0.03 50 1006.5
20260504040003 15 153 0.0 0.0 0.00 0.03 0.03 50 1006.5
20260504035004 15 150 0.0 3.2 0.00 0.03 0.03 51 1006.6
20260504034504 15 130 0.0 4.8 0.00 0.03 0.03 54 1006.6
20260504034004 15 123 0.0 0.0 0.00 0.03 0.03 52 1006.7
20260504033504 15 120 3.2 4.8 0.00 0.03 0.03 52 1006.7
20260504033004 15 161 0.0 0.0 0.00 0.03 0.03 48 1006.7
20260504032504 15 161 0.0 0.0 0.00 0.03 0.03 48 1006.6
20260504032005 16 161 0.0 0.0 0.00 0.03 0.03 48 1006.6
20260504031504 16 161 0.0 0.0 0.00 0.03 0.03 48 1006.7
20260504031004 16 162 0.0 0.0 0.00 0.03 0.03 47 1006.6
20260504030504 16 162 0.0 0.0 0.00 0.03 0.03 46 1006.7
20260504030004 16 222 0.0 0.0 0.00 0.03 0.03 43 1006.7
20260504025504 16 222 0.0 0.0 0.00 0.03 0.03 43 1006.7
20260504025004 16 222 0.0 0.0 0.00 0.03 0.03 42 1006.7
20260504024504 16 222 0.0 0.0 0.00 0.03 0.03 43 1006.7
20260504024004 16 222 0.0 0.0 0.00 0.03 0.03 43 1006.8
20260504023504 16 222 0.0 0.0 0.00 0.03 0.03 44 1006.8
20260504023004 16 222 0.0 0.0 0.00 0.03 0.03 43 1006.9
20260504022504 16 222 0.0 0.0 0.00 0.03 0.03 44 1006.8
20260504022004 17 222 0.0 0.0 0.00 0.03 0.03 43 1006.8
20260504021504 17 222 0.0 0.0 0.00 0.03 0.03 44 1006.8
20260504021004 17 222 0.0 0.0 0.00 0.03 0.03 43 1006.8
20260504020504 17 222 0.0 0.0 0.00 0.03 0.03 44 1006.9
20260504020004 17 222 0.0 0.0 0.00 0.03 0.03 41 1006.9
20260504015504 17 222 0.0 0.0 0.00 0.03 0.03 42 1007.0
20260504015004 17 222 0.0 0.0 0.00 0.03 0.03 42 1007.1
20260504014504 18 222 0.0 0.0 0.00 0.03 0.03 40 1007.2
20260504014004 18 222 0.0 0.0 0.00 0.03 0.03 40 1007.2
20260504013504 18 223 0.0 0.0 0.00 0.03 0.03 40 1007.2
20260504013004 18 223 0.0 0.0 0.00 0.03 0.03 39 1007.2
20260504012503 19 224 0.0 0.0 0.00 0.03 0.03 38 1007.2
20260504012004 19 225 0.0 1.6 0.00 0.03 0.03 37 1007.3
20260504011504 20 227 0.0 0.0 0.00 0.03 0.03 37 1007.3
20260504011004 20 217 0.0 0.0 0.00 0.03 0.03 36 1007.4
20260504010505 20 215 0.0 0.0 0.00 0.03 0.03 36 1007.5
20260504010004 20 205 0.0 1.6 0.00 0.03 0.03 36 1007.5
20260504005504 21 231 0.0 4.8 0.00 0.03 0.03 35 1007.6
20260504005004 21 224 3.2 4.8 0.00 0.03 0.03 33 1007.6
20260504004504 21 203 3.2 4.8 0.00 0.03 0.03 34 1007.8
20260504004004 21 212 4.8 9.7 0.00 0.03 0.03 33 1007.8
20260504003504 21 219 4.8 9.7 0.00 0.03 0.03 33 1007.8
20260504003004 21 222 4.8 11.3 0.00 0.03 0.03 33 1007.8
20260504002504 22 204 6.4 12.9 0.00 0.03 0.03 32 1007.9
20260504002004 22 207 6.4 14.5 0.00 0.03 0.03 32 1008.0
20260504001504 22 192 4.8 11.3 0.00 0.03 0.03 31 1008.0
20260504001004 22 195 6.4 9.7 0.00 0.03 0.03 30 1008.0
20260504000505 23 204 6.4 11.3 0.00 0.03 0.03 30 1008.1
20260504000004 23 191 3.2 11.3 0.00 0.03 0.03 29 1008.1
20260503235504 23 206 4.8 9.7 0.00 0.03 0.03 30 1008.1
20260503235004 23 197 4.8 9.7 0.00 0.03 0.03 30 1008.2
20260503234503 22 228 8.0 9.7 0.00 0.03 0.03 30 1008.2
20260503234004 22 202 3.2 8.0 0.00 0.03 0.03 31 1008.3
20260503233504 22 217 3.2 4.8 0.00 0.03 0.03 31 1008.3
20260503233004 22 223 1.6 4.8 0.00 0.03 0.03 31 1008.4
20260503232504 22 287 1.6 8.0 0.00 0.03 0.03 31 1008.4
20260503232004 22 216 1.6 4.8 0.00 0.03 0.03 32 1008.5
20260503231504 22 209 4.8 9.7 0.00 0.03 0.03 31 1008.5
20260503231004 23 214 1.6 9.7 0.00 0.03 0.03 30 1008.5
20260503230504 23 277 3.2 9.7 0.00 0.03 0.03 29 1008.5
20260503230003 23 245 4.8 19.3 0.00 0.03 0.03 30 1008.5
20260503225504 23 273 6.4 9.7 0.00 0.03 0.03 31 1008.5
20260503225004 23 265 3.2 4.8 0.00 0.03 0.03 29 1008.6
20260503224504 23 331 4.8 9.7 0.00 0.03 0.03 28 1008.7
20260503224004 23 281 4.8 12.9 0.00 0.03 0.03 33 1008.7
20260503223503 23 259 3.2 9.7 0.00 0.03 0.03 31 1008.8
20260503223005 23 232 3.2 12.9 0.00 0.03 0.03 32 1008.8
20260503222504 23 278 4.8 12.9 0.00 0.03 0.03 31 1008.8
20260503222004 23 255 4.8 11.3 0.00 0.03 0.03 31 1008.8
20260503221504 23 283 3.2 11.3 0.00 0.03 0.03 33 1008.9
20260503221005 23 268 1.6 11.3 0.00 0.03 0.03 31 1008.9
20260503220504 23 204 3.2 9.7 0.00 0.03 0.03 31 1009.0
20260503220004 23 266 4.8 16.1 0.00 0.03 0.03 32 1009.0
20260503215504 23 282 6.4 12.9 0.00 0.03 0.03 31 1009.1
20260503215005 23 234 4.8 12.9 0.00 0.03 0.03 30 1009.1
20260503214504 23 275 1.6 12.9 0.00 0.03 0.03 31 1009.2
20260503214004 23 284 4.8 11.3 0.00 0.03 0.03 31 1009.3
20260503213504 23 279 4.8 12.9 0.00 0.03 0.03 33 1009.5
20260503213005 23 257 4.8 11.3 0.00 0.03 0.03 33 1009.5
20260503212504 23 231 4.8 11.3 0.00 0.03 0.03 33 1009.7
20260503212004 23 272 6.4 12.9 0.00 0.03 0.03 33 1009.6
20260503211504 23 208 4.8 9.7 0.00 0.03 0.03 31 1009.8
20260503211005 23 286 8.0 16.1 0.00 0.03 0.03 30 1009.7
20260503210504 23 262 3.2 12.9 0.00 0.03 0.03 34 1009.9
20260503210004 23 209 4.8 12.9 0.00 0.03 0.03 35 1009.9
20260503205504 23 274 1.6 12.9 0.00 0.03 0.03 31 1010.0
20260503205004 23 227 1.6 9.7 0.00 0.03 0.03 31 1010.1
20260503204504 22 217 3.2 8.0 0.00 0.03 0.03 33 1010.1
20260503204004 22 286 4.8 16.1 0.00 0.03 0.03 30 1010.2
20260503203504 22 251 4.8 12.9 0.00 0.03 0.03 34 1010.3
20260503203004 22 271 6.4 14.5 0.00 0.03 0.03 33 1010.4
20260503202504 23 280 6.4 14.5 0.00 0.03 0.03 30 1010.4
20260503202004 23 284 4.8 16.1 0.00 0.03 0.03 35 1010.4
20260503201504 23 275 1.6 9.7 0.00 0.03 0.03 35 1010.5
20260503201004 22 237 3.2 9.7 0.00 0.03 0.03 32 1010.5
20260503200504 22 203 3.2 8.0 0.00 0.03 0.03 33 1010.5
20260503200005 22 174 1.6 9.7 0.00 0.03 0.03 31 1010.6
20260503195505 22 301 3.2 4.8 0.00 0.03 0.03 32 1010.6
20260503195005 22 332 4.8 11.3 0.00 0.03 0.03 30 1010.7
20260503194504 22 284 9.7 20.9 0.00 0.03 0.03 32 1010.8
20260503194005 22 276 9.7 22.5 0.00 0.03 0.03 32 1010.9
20260503193505 22 225 4.8 11.3 0.00 0.03 0.03 33 1010.8
20260503193005 22 265 9.7 19.3 0.00 0.03 0.03 33 1010.9
20260503192504 22 294 4.8 11.3 0.00 0.03 0.03 36 1010.9
20260503192005 22 250 4.8 14.5 0.00 0.03 0.03 31 1010.9
20260503191504 22 253 3.2 12.9 0.00 0.03 0.03 34 1011.0
20260503191004 22 260 3.2 14.5 0.00 0.03 0.03 37 1011.1
20260503190504 22 313 3.2 4.8 0.00 0.03 0.03 34 1011.1
20260503190005 22 223 6.4 19.3 0.00 0.03 0.03 34 1011.2
20260503185505 22 294 8.0 14.5 0.00 0.03 0.03 34 1011.2
20260503185004 22 351 4.8 12.9 0.00 0.03 0.03 32 1011.1
20260503184504 22 259 6.4 14.5 0.00 0.03 0.03 33 1011.2
20260503184005 22 289 1.6 4.8 0.00 0.03 0.03 34 1011.3
20260503183504 22 283 4.8 11.3 0.00 0.05 0.03 35 1011.4
20260503183004 22 267 4.8 11.3 0.00 0.05 0.03 34 1011.5
20260503182505 22 268 6.4 19.3 0.00 0.05 0.03 34 1011.6
20260503182005 21 257 1.6 8.0 0.00 0.05 0.03 34 1011.6
20260503181505 22 335 3.2 12.9 0.00 0.05 0.03 34 1011.7
20260503181004 21 355 4.8 11.3 0.00 0.05 0.03 34 1011.7
20260503180504 21 274 8.0 14.5 0.00 0.05 0.03 35 1011.8
20260503180004 21 292 3.2 11.3 0.00 0.05 0.03 36 1011.9
20260503175504 21 323 4.8 32.2 0.00 0.05 0.03 37 1012.0
20260503175004 21 260 1.6 9.7 0.00 0.05 0.03 37 1012.1
20260503174504 21 268 3.2 12.9 0.00 0.05 0.03 38 1012.2
20260503174005 21 317 3.2 12.9 0.00 0.05 0.03 36 1012.3
20260503173504 21 288 3.2 14.5 0.00 0.05 0.03 37 1012.3
20260503173004 20 21 4.8 14.5 0.00 0.05 0.03 39 1012.4
20260503172504 20 315 6.4 16.1 0.00 0.05 0.03 38 1012.5
20260503172004 20 268 8.0 14.5 0.00 0.05 0.03 36 1012.5
20260503171504 20 316 6.4 12.9 0.00 0.05 0.03 38 1012.4
20260503171004 20 267 4.8 12.9 0.00 0.05 0.03 40 1012.5
20260503170504 20 283 4.8 12.9 0.00 0.05 0.03 39 1012.5